Weather History for Beaufort MCAS, SC

Change the Weather History Date:

Saturday, November 10, 2012

  Actual Average Record
Temperature  
Mean Temperature 56 °F -  
Max Temperature 72 °F 70 °F 86 °F (1948)
Min Temperature 39 °F 52 °F 32 °F (1941)
Degree Days  
Heating Degree Days 10    
Growing Degree Days 6 (Base 50)    
Moisture  
Dew Point 41 °F    
Average Humidity 73    
Maximum Humidity 93    
Minimum Humidity 27    
Precipitation  
Precipitation 0.00 in - - ()
Sea Level Pressure  
Sea Level Pressure 30.34 in    
Wind  
Wind Speed 0 mph (SSE)    
Max Wind Speed 7 mph    
Max Gust Speed -    
Visibility 9 miles    
Events Fog    
Averages and records for this station are not official NWS values.
T = Trace of Precipitation, MM = Missing Value Source: NWS Daily Summary

Daily Weather History Graph

Daily Weather History Graph

Search for Another Location

Airport:

Trip Planner

Search our weather history database for the weather conditions in past years. The results will help you decide how hot, cold, wet, or windy it might be!

Date:

Astronomy

Nov. 10, 2012 Rise Set
Actual Time 6:48 AM EST 5:24 PM EST
Civil Twilight 6:22 AM EST 5:50 PM EST
Nautical Twilight 5:53 AM EST 6:20 PM EST
Astronomical Twilight 5:24 AM EST 6:49 PM EST
Moon 3:03 AM EST (11/10) 3:01 PM EST (11/10)
Length of Visible Light 11h 28m
Length of Day
10h 36m
Waning Crescent, 14% of the Moon is Illuminated
Nov 10
Waning Crescent
Nov 13
New
Nov 20
First Quarter
Nov 28
Full
Dec 6
Last Quarter

Hourly Weather History & Observations

Time (EST) Temp. Dew Point Humidity Pressure Visibility Wind Dir Wind Speed Gust Speed Precip Events Conditions
12:56 AM 44.1 °F 41.0 °F 89% 30.28 in 10.0 mi Calm Calm - N/A   Clear
1:56 AM 44.1 °F 41.0 °F 89% 30.29 in 10.0 mi Calm Calm - N/A   Clear
2:20 AM 42.8 °F 41.0 °F 93% 30.29 in 10.0 mi Calm Calm - N/A   Scattered Clouds
2:32 AM 42.8 °F 39.2 °F 87% 30.29 in 10.0 mi Calm Calm - N/A   Mostly Cloudy
2:56 AM 43.0 °F 39.9 °F 89% 30.30 in 9.0 mi Calm Calm - N/A   Scattered Clouds
3:56 AM 42.1 °F 39.0 °F 89% 30.30 in 10.0 mi Calm Calm - N/A   Clear
4:45 AM 41.0 °F 37.4 °F 87% 30.31 in 9.0 mi Calm Calm - N/A   Partly Cloudy
4:56 AM 41.0 °F 37.0 °F 86% 30.32 in 10.0 mi Calm Calm - N/A   Scattered Clouds
5:56 AM 41.0 °F 37.9 °F 89% 30.33 in 10.0 mi Calm Calm - N/A   Clear
6:56 AM 39.9 °F 36.0 °F 86% 30.35 in 9.0 mi Calm Calm - N/A   Clear
7:00 AM 39.2 °F 37.4 °F 93% 30.35 in 1.0 mi Calm Calm - N/A   Mist
7:04 AM 39.2 °F 37.4 °F 93% 30.35 in 0.5 mi Calm Calm - N/A Fog Fog
7:10 AM 41.0 °F 37.4 °F 87% 30.35 in 1.2 mi Calm Calm - N/A   Mostly Cloudy
7:14 AM 41.0 °F 37.4 °F 87% 30.35 in 3.0 mi Calm Calm - N/A   Mostly Cloudy
7:28 AM 42.8 °F 39.2 °F 87% 30.36 in 8.0 mi Calm Calm - N/A   Scattered Clouds
7:56 AM 45.0 °F 42.1 °F 90% 30.38 in 9.0 mi Calm Calm - N/A   Clear
8:56 AM 57.0 °F 46.9 °F 69% 30.38 in 10.0 mi NNW 3.5 mph - N/A   Clear
9:56 AM 64.0 °F 46.9 °F 54% 30.39 in 10.0 mi Calm Calm - N/A   Clear
10:56 AM 66.9 °F 43.0 °F 42% 30.38 in 10.0 mi Calm Calm - N/A   Clear
11:56 AM 69.1 °F 44.1 °F 40% 30.36 in 10.0 mi Calm Calm - N/A   Clear
12:56 PM 72.0 °F 36.0 °F 27% 30.34 in 10.0 mi Calm Calm - N/A   Clear
1:56 PM 71.1 °F 39.0 °F 31% 30.32 in 10.0 mi SSE 3.5 mph - N/A   Clear
2:56 PM 70.0 °F 44.1 °F 39% 30.32 in 10.0 mi SSE 6.9 mph - N/A   Clear
3:56 PM 68.0 °F 39.9 °F 36% 30.33 in 10.0 mi South 4.6 mph - N/A   Clear
4:56 PM 64.9 °F 41.0 °F 42% 30.34 in 10.0 mi SSE 5.8 mph - N/A   Clear
5:56 PM 60.1 °F 45.0 °F 57% 30.35 in 10.0 mi Calm Calm - N/A   Clear
6:56 PM 57.9 °F 43.0 °F 58% 30.37 in 10.0 mi Calm Calm - N/A   Clear
7:56 PM 51.1 °F 45.0 °F 80% 30.38 in 10.0 mi Calm Calm - N/A   Clear
8:56 PM 50.0 °F 42.1 °F 74% 30.38 in 10.0 mi Calm Calm - N/A   Clear
9:56 PM 50.0 °F 44.1 °F 80% 30.39 in 10.0 mi Calm Calm - N/A   Clear
10:56 PM 46.9 °F 45.0 °F 93% 30.38 in 10.0 mi Calm Calm - N/A   Clear
11:56 PM 46.9 °F 44.1 °F 90% 30.38 in 10.0 mi Calm Calm - N/A   Clear